EW0609 Weather Reports


Display with metric or nautical units.
time (UTC)temp
F
wind
direction
speed
MPH
gust
MPH
rain 1hr
in
rain 24hr
in
rain mn
in
humidity
%
barometer
mb
20260906181309 94 116 6.0 17.0 0.00 0.00 0.00 38 1017.7
20260906181216 94 131 8.0 17.0 0.00 0.00 0.00 38 1017.7
20260906180310 93 104 6.0 14.0 0.00 0.00 0.00 39 1017.8
20260906175810 94 134 7.0 14.0 0.00 0.00 0.00 40 1017.8
20260906175316 93 157 6.0 13.0 0.00 0.00 0.00 41 1017.8
20260906174809 93 172 5.0 13.0 0.00 0.00 0.00 40 1018.1
20260906174315 93 203 6.0 18.0 0.00 0.00 0.00 40 1018.1
20260906174044 92 210 9.0 18.0 0.00 0.00 0.00 41 1018.1
20260906173545 92 134 5.0 17.0 0.00 0.00 0.00 41 1018.2
20260906173323 92 134 5.0 17.0 0.00 0.00 0.00 41 1018.2
20260906172811 92 107 9.0 17.0 0.00 0.00 0.00 40 1018.2
20260906172313 92 123 6.0 14.0 0.00 0.00 0.00 42 1018.2
20260906171842 92 103 6.0 14.0 0.00 0.00 0.00 43 1018.3
20260906171315 92 240 5.0 14.0 0.00 0.00 0.00 42 1018.2
20260906170819 92 104 6.0 14.0 0.00 0.00 0.00 42 1018.2
20260906170318 93 127 4.0 12.0 0.00 0.00 0.00 42 1018.2
20260906165810 92 144 5.0 14.0 0.00 0.00 0.00 44 1018.3
20260906165319 91 162 6.0 14.0 0.00 0.00 0.00 44 1018.3
20260906165306 91 159 6.0 14.0 0.00 0.00 0.00 44 1018.3
20260906164312 90 171 6.0 14.0 0.00 0.00 0.00 46 1018.4
20260906164041 90 147 6.0 14.0 0.00 0.00 0.00 46 1018.4
20260906164003 90 65 5.0 12.0 0.00 0.00 0.00 46 1018.5
20260906163819 90 147 6.0 14.0 0.00 0.00 0.00 46 1018.4
20260906163757 90 65 5.0 12.0 0.00 0.00 0.00 46 1018.5
20260906162810 90 151 4.0 12.0 0.00 0.00 0.00 46 1018.4
20260906162310 90 199 4.0 12.0 0.00 0.00 0.00 46 1018.5
20260906162044 90 173 5.0 12.0 0.00 0.00 0.00 48 1018.5
20260906161812 90 173 5.0 12.0 0.00 0.00 0.00 48 1018.5
20260906161311 90 155 6.0 12.0 0.00 0.00 0.00 48 1018.4
20260906160817 90 113 4.0 12.0 0.00 0.00 0.00 47 1018.4
20260906160350 89 244 6.0 12.0 0.00 0.00 0.00 49 1018.3
20260906160326 89 162 4.0 12.0 0.00 0.00 0.00 49 1018.4
20260906155309 88 220 5.0 11.0 0.00 0.00 0.00 49 1018.3
20260906154817 88 220 6.0 11.0 0.00 0.00 0.00 50 1018.2
20260906154311 88 145 4.0 12.0 0.00 0.00 0.00 50 1018.3
20260906154036 87 147 4.0 12.0 0.00 0.00 0.00 52 1018.1
20260906153813 87 147 4.0 12.0 0.00 0.00 0.00 52 1018.1
20260906153544 87 228 5.0 17.0 0.00 0.00 0.00 53 1018.1
20260906153314 87 228 5.0 17.0 0.00 0.00 0.00 53 1018.1
20260906152809 86 271 5.0 17.0 0.00 0.00 0.00 53 1018.2
20260906152309 86 0 6.0 11.0 0.00 0.00 0.00 53 1018.1
20260906151814 87 0 6.0 11.0 0.00 0.00 0.00 53 1018.1
20260906151313 86 134 5.0 12.0 0.00 0.00 0.00 53 1018.2
20260906150809 85 123 6.0 12.0 0.00 0.00 0.00 54 1018.1
20260906150309 85 210 4.0 11.0 0.00 0.00 0.00 53 1018.1
20260906150214 85 162 3.0 12.0 0.00 0.00 0.00 53 1018.1
20260906145323 85 179 7.0 12.0 0.00 0.00 0.00 54 1018.2
20260906144810 84 159 2.0 12.0 0.00 0.00 0.00 54 1018.1
20260906144657 84 193 5.0 11.0 0.00 0.00 0.00 54 1018.1
20260906143813 84 189 5.0 11.0 0.00 0.00 0.00 55 1018.1
20260906143309 83 159 4.0 12.0 0.00 0.00 0.00 56 1018.1
20260906142809 83 226 6.0 12.0 0.00 0.00 0.00 56 1018.0
20260906142311 82 227 5.0 11.0 0.00 0.00 0.00 57 1018.0
20260906141808 81 176 2.0 9.0 0.00 0.00 0.00 58 1017.8
20260906141309 80 213 3.0 9.0 0.00 0.00 0.00 58 1018.0
20260906141144 81 214 4.0 9.0 0.00 0.00 0.00 58 1018.0
20260906140644 80 231 3.0 9.0 0.00 0.00 0.00 58 1018.0
20260906135809 80 155 3.0 7.0 0.00 0.00 0.00 59 1018.0
20260906135308 79 207 4.0 7.0 0.00 0.00 0.00 60 1017.8
20260906134807 78 202 4.0 7.0 0.00 0.00 0.00 61 1017.7
20260906134310 77 175 3.0 6.0 0.00 0.00 0.00 62 1017.6
20260906133809 76 142 2.0 6.0 0.00 0.00 0.00 63 1017.6
20260906133309 76 172 2.0 5.0 0.00 0.00 0.00 63 1017.6
20260906132809 75 159 2.0 6.0 0.00 0.00 0.00 64 1017.5
20260906132308 75 154 3.0 7.0 0.00 0.00 0.00 64 1017.5
20260906131809 75 175 3.0 7.0 0.00 0.00 0.00 64 1017.5
20260906131311 75 92 1.0 5.0 0.00 0.00 0.00 64 1017.4
20260906130809 74 203 4.0 7.0 0.00 0.00 0.00 64 1017.4
20260906130309 74 166 4.0 7.0 0.00 0.00 0.00 64 1017.4
20260906125813 74 161 3.0 7.0 0.00 0.00 0.00 64 1017.3
20260906125538 74 217 2.0 9.0 0.00 0.00 0.00 64 1017.4
20260906125436 74 219 2.0 9.0 0.00 0.00 0.00 64 1017.3
20260906124308 74 161 3.0 9.0 0.00 0.00 0.00 64 1017.4
20260906123810 74 171 3.0 9.0 0.00 0.00 0.00 64 1017.2
20260906123309 74 165 3.0 7.0 0.00 0.00 0.00 64 1017.3
20260906122808 74 141 3.0 9.0 0.00 0.00 0.00 64 1017.2
20260906122310 74 133 4.0 9.0 0.00 0.00 0.00 64 1017.2
20260906122026 74 117 4.0 7.0 0.00 0.00 0.00 64 1016.9
20260906121813 74 117 4.0 7.0 0.00 0.00 0.00 64 1016.9
20260906121309 74 128 3.0 7.0 0.00 0.00 0.00 64 1017.1
20260906120809 74 123 2.0 6.0 0.00 0.00 0.00 64 1017.1
20260906120310 74 137 4.0 7.0 0.00 0.00 0.00 63 1016.9
20260906115808 75 114 5.0 7.0 0.00 0.00 0.00 63 1017.1
20260906115309 75 133 3.0 5.0 0.00 0.00 0.00 62 1016.9
20260906114809 75 180 2.0 7.0 0.00 0.00 0.00 62 1016.9
20260906114540 75 138 1.0 7.0 0.00 0.00 0.00 62 1016.8
20260906114135 75 133 2.0 7.0 0.00 0.00 0.00 62 1016.8
20260906113309 75 140 3.0 7.0 0.00 0.00 0.00 62 1016.9
20260906113113 75 117 3.0 6.0 0.00 0.00 0.00 62 1016.9
20260906112308 75 110 1.0 6.0 0.00 0.00 0.00 62 1016.9
20260906112145 75 110 4.0 6.0 0.00 0.00 0.00 61 1016.9
20260906111308 75 193 0.0 5.0 0.00 0.00 0.00 61 1016.9
20260906110809 75 209 2.0 5.0 0.00 0.00 0.00 61 1016.9
20260906110310 75 147 2.0 6.0 0.00 0.00 0.00 61 1016.9
20260906105809 75 116 2.0 6.0 0.00 0.00 0.00 61 1016.8
20260906105307 75 145 2.0 6.0 0.00 0.00 0.00 61 1016.9
20260906104808 75 173 2.0 6.0 0.00 0.00 0.00 61 1016.7
20260906104308 75 121 3.0 7.0 0.00 0.00 0.00 61 1016.7
20260906103811 76 173 4.0 7.0 0.00 0.00 0.00 61 1016.8
20260906103634 76 128 4.0 7.0 0.00 0.00 0.00 60 1016.8
20260906102807 76 103 3.0 6.0 0.00 0.00 0.00 60 1016.7
20260906102350 76 93 2.0 5.0 0.00 0.00 0.00 59 1016.6
20260906102343 76 175 2.0 5.0 0.00 0.00 0.00 60 1016.6
20260906102329 76 140 3.0 4.0 0.00 0.00 0.00 60 1016.7
20260906100808 76 142 2.0 6.0 0.00 0.00 0.00 59 1016.5
20260906100308 76 142 3.0 6.0 0.00 0.00 0.00 59 1016.5
20260906095809 76 141 3.0 9.0 0.00 0.00 0.00 59 1016.5
20260906095308 77 164 2.0 9.0 0.00 0.00 0.00 58 1016.5
20260906094808 77 175 3.0 7.0 0.00 0.00 0.00 58 1016.5
20260906094540 77 138 4.0 7.0 0.00 0.00 0.00 58 1016.5
20260906093810 77 121 2.0 7.0 0.00 0.00 0.00 58 1016.6
20260906093638 77 169 4.0 7.0 0.00 0.00 0.00 58 1016.6
20260906092808 77 180 3.0 7.0 0.00 0.00 0.00 57 1016.6
20260906092311 77 148 2.0 6.0 0.00 0.00 0.00 57 1016.6
20260906092012 77 149 2.0 6.0 0.00 0.00 0.00 57 1016.6
20260906091920 77 203 3.0 6.0 0.00 0.00 0.00 57 1016.6
20260906090807 77 180 1.0 6.0 0.00 0.00 0.00 57 1016.5
20260906090309 77 159 2.0 6.0 0.00 0.00 0.00 57 1016.6
20260906085808 78 159 4.0 11.0 0.00 0.00 0.00 57 1016.5
20260906085533 78 173 3.0 11.0 0.00 0.00 0.00 57 1016.6
20260906085316 78 173 3.0 11.0 0.00 0.00 0.00 57 1016.6
20260906084808 78 159 3.0 7.0 0.00 0.00 0.00 57 1016.6
20260906084309 78 161 3.0 7.0 0.00 0.00 0.00 56 1016.6
20260906084010 78 178 2.0 6.0 0.00 0.00 0.00 56 1016.5
20260906083925 78 155 4.0 7.0 0.00 0.00 0.00 57 1016.6
20260906082809 78 219 2.0 7.0 0.00 0.00 0.00 55 1016.5
20260906082310 79 145 3.0 7.0 0.00 0.00 0.00 55 1016.5
20260906081807 79 171 4.0 6.0 0.00 0.00 0.00 55 1016.5
20260906081639 79 183 3.0 9.0 0.00 0.00 0.00 54 1016.6
20260906080809 80 173 4.0 9.0 0.00 0.00 0.00 54 1016.6
20260906080308 80 169 2.0 10.0 0.00 0.00 0.00 54 1016.6
20260906075812 80 192 5.0 10.0 0.00 0.00 0.00 53 1016.6
20260906075632 80 154 2.0 9.0 0.00 0.00 0.00 53 1016.6
20260906074808 80 116 4.0 11.0 0.00 0.00 0.00 53 1016.5
20260906074308 80 137 4.0 11.0 0.00 0.00 0.00 53 1016.5
20260906073809 81 124 3.0 11.0 0.00 0.00 0.00 53 1016.5
20260906073308 81 159 3.0 11.0 0.00 0.00 0.00 52 1016.5
20260906072809 81 127 4.0 11.0 0.00 0.00 0.00 52 1016.5
20260906072307 81 147 5.0 10.0 0.00 0.00 0.00 52 1016.6
20260906072138 81 152 4.0 12.0 0.00 0.00 0.00 52 1016.6
20260906071309 81 102 5.0 12.0 0.00 0.00 0.00 52 1016.6
20260906070809 81 155 5.0 11.0 0.00 0.00 0.00 52 1016.7
20260906070309 81 151 3.0 11.0 0.00 0.00 0.00 52 1016.8
20260906065808 81 148 4.0 7.0 0.00 0.00 0.00 52 1016.7
20260906065647 81 144 4.0 10.0 0.00 0.00 0.00 52 1016.7
20260906065140 81 186 5.0 10.0 0.00 0.00 0.00 52 1016.6
20260906064634 81 123 3.0 7.0 0.00 0.00 0.00 52 1016.6
20260906063808 81 99 3.0 7.0 0.00 0.00 0.00 52 1016.6
20260906063308 81 114 2.0 9.0 0.00 0.00 0.00 52 1016.6
20260906062813 81 175 4.0 9.0 0.00 0.00 0.00 52 1016.7
20260906062308 81 116 4.0 9.0 0.00 0.00 0.00 52 1016.7
20260906061809 81 135 4.0 10.0 0.00 0.00 0.00 52 1016.6
20260906061308 81 124 3.0 10.0 0.00 0.00 0.00 52 1016.7
20260906060811 81 127 3.0 9.0 0.00 0.00 0.00 51 1016.8
20260906060311 81 93 3.0 9.0 0.00 0.00 0.00 51 1016.8
20260906055808 82 102 4.0 9.0 0.00 0.00 0.00 50 1016.7
20260906055308 82 151 3.0 9.0 0.00 0.00 0.00 50 1016.7
20260906055147 82 116 5.0 9.0 0.00 0.00 0.00 50 1016.7
20260906054307 82 79 4.0 9.0 0.00 0.00 0.00 50 1016.7
20260906053808 82 144 4.0 9.0 0.00 0.00 0.00 49 1016.8
20260906053309 82 111 4.0 9.0 0.00 0.00 0.00 49 1016.6
20260906052809 83 104 4.0 9.0 0.00 0.00 0.00 49 1016.7
20260906052634 83 103 4.0 11.0 0.00 0.00 0.00 49 1016.5
20260906051808 83 111 5.0 11.0 0.00 0.00 0.00 49 1016.6
20260906051308 82 120 5.0 11.0 0.00 0.00 0.00 49 1016.6
20260906050808 82 109 3.0 6.0 0.00 0.00 0.00 50 1016.7
20260906050308 82 116 3.0 11.0 0.00 0.00 0.00 50 1016.6
20260906045831 82 144 3.0 11.0 0.00 0.00 0.00 49 1016.7
20260906045430 83 123 4.0 10.0 0.00 0.00 0.00 49 1016.6
20260906044312 83 116 4.0 9.0 0.00 0.00 0.00 49 1016.6
20260906043808 83 145 4.0 10.0 0.00 0.00 0.00 48 1016.7
20260906043307 83 151 6.0 10.0 0.00 0.00 0.00 48 1016.7
20260906043117 84 113 5.0 10.0 0.00 0.00 0.00 47 1016.7
20260906042308 84 83 5.0 12.0 0.00 0.00 0.00 47 1016.7
20260906041807 84 102 5.0 12.0 0.00 0.00 0.00 46 1016.7
20260906041635 84 110 4.0 10.0 0.00 0.00 0.00 46 1016.7
20260906041133 85 99 5.0 10.0 0.00 0.00 0.00 46 1016.6
20260906040309 85 104 6.0 14.0 0.00 0.00 0.00 46 1016.6
20260906040143 85 169 5.0 14.0 0.00 0.00 0.00 45 1016.6
20260906035317 85 111 6.0 11.0 0.00 0.00 0.00 45 1016.6
20260906034809 85 125 6.0 11.0 0.00 0.00 0.00 45 1016.6
20260906034648 85 104 4.0 10.0 0.00 0.00 0.00 44 1016.6
20260906033809 85 102 5.0 9.0 0.00 0.00 0.00 44 1016.7
20260906033307 85 111 4.0 7.0 0.00 0.00 0.00 44 1016.6
20260906032809 86 130 3.0 7.0 0.00 0.00 0.00 44 1016.6
20260906032519 86 111 5.0 11.0 0.00 0.00 0.00 43 1016.4
20260906032418 86 148 2.0 11.0 0.00 0.00 0.00 43 1016.5
20260906031308 86 121 4.0 12.0 0.00 0.00 0.00 43 1016.4
20260906031142 86 113 4.0 12.0 0.00 0.00 0.00 44 1016.3
20260906030637 86 164 7.0 12.0 0.00 0.00 0.00 44 1016.1
20260906025845 86 107 6.0 15.0 0.00 0.00 0.00 43 1015.8
20260906025438 86 125 6.0 15.0 0.00 0.00 0.00 43 1015.7
20260906024308 86 151 6.0 14.0 0.00 0.00 0.00 43 1015.6
20260906023812 86 113 8.0 13.0 0.00 0.00 0.00 43 1015.5
20260906023308 86 107 6.0 13.0 0.00 0.00 0.00 43 1015.4
20260906023137 86 87 6.0 13.0 0.00 0.00 0.00 44 1015.3
20260906022310 86 111 8.0 13.0 0.00 0.00 0.00 44 1015.3
20260906021807 86 138 8.0 12.0 0.00 0.00 0.00 44 1015.3
20260906021641 86 111 7.0 12.0 0.00 0.00 0.00 44 1015.3
20260906020807 87 158 6.0 11.0 0.00 0.00 0.00 45 1015.3
20260906020308 87 102 5.0 12.0 0.00 0.00 0.00 45 1015.3
20260906015809 87 97 6.0 12.0 0.00 0.00 0.00 45 1015.3
20260906015312 87 118 6.0 12.0 0.00 0.00 0.00 44 1015.2
20260906014810 88 102 4.0 13.0 0.00 0.00 0.00 43 1015.1
20260906014310 88 133 6.0 14.0 0.00 0.00 0.00 43 1014.7
20260906013813 88 125 6.0 14.0 0.00 0.00 0.00 43 1014.6
20260906013536 88 102 6.0 13.0 0.00 0.00 0.00 43 1014.5
20260906012808 89 100 6.0 14.0 0.00 0.00 0.00 42 1014.5
20260906012315 89 79 6.0 14.0 0.00 0.00 0.00 42 1014.5
20260906011808 89 104 5.0 12.0 0.00 0.00 0.00 42 1014.6
20260906011307 89 154 6.0 12.0 0.00 0.00 0.00 42 1014.4
20260906010807 89 125 4.0 11.0 0.00 0.00 0.00 41 1014.5
20260906010731 90 116 6.0 12.0 0.00 0.00 0.00 41 1014.5
20260906005809 90 85 6.0 12.0 0.00 0.00 0.00 40 1014.5
20260906005307 91 103 6.0 12.0 0.00 0.00 0.00 40 1014.6
20260906004810 91 96 6.0 13.0 0.00 0.00 0.00 40 1014.6
20260906004316 91 97 8.0 13.0 0.00 0.00 0.00 40 1014.4
20260906003808 91 114 5.0 10.0 0.00 0.00 0.00 39 1014.4
20260906003308 92 127 4.0 12.0 0.00 0.00 0.00 39 1014.3
20260906002807 92 138 7.0 15.0 0.00 0.00 0.00 39 1014.4
20260906002530 92 117 6.0 15.0 0.00 0.00 0.00 39 1014.4
20260906001807 92 86 8.0 14.0 0.00 0.00 0.00 38 1014.3
20260906001741 92 109 8.0 14.0 0.00 0.00 0.00 38 1014.2
20260906000809 92 134 6.0 15.0 0.00 0.00 0.00 38 1014.2
20260906000311 93 110 7.0 15.0 0.00 0.00 0.00 38 1014.0
20260905235812 93 130 7.0 14.0 0.00 0.00 0.00 38 1013.9
20260905235308 94 131 7.0 14.0 0.00 0.00 0.00 37 1013.9
20260905235036 95 104 7.0 14.0 0.00 0.00 0.00 34 1013.8
20260905234814 95 104 7.0 14.0 0.00 0.00 0.00 34 1013.8
20260905234313 94 118 4.0 10.0 0.00 0.00 0.00 34 1013.8
20260905234044 94 161 4.0 9.0 0.00 0.00 0.00 34 1013.7
20260905233812 94 161 4.0 9.0 0.00 0.00 0.00 34 1013.7
20260905233521 94 133 4.0 11.0 0.00 0.00 0.00 35 1013.4
20260905233401 94 97 5.0 9.0 0.00 0.00 0.00 34 1013.5
20260905232308 94 106 6.0 11.0 0.00 0.00 0.00 34 1013.4
20260905231814 94 133 5.0 10.0 0.00 0.00 0.00 35 1013.4
20260905231311 94 111 4.0 13.0 0.00 0.00 0.00 35 1013.4
20260905230904 95 97 6.0 12.0 0.00 0.00 0.00 34 1013.4
20260905230829 94 142 6.0 13.0 0.00 0.00 0.00 35 1013.4
20260905225810 95 113 5.0 10.0 0.00 0.00 0.00 33 1013.4
20260905225737 95 125 4.0 9.0 0.00 0.00 0.00 34 1013.4
20260905224812 95 180 4.0 10.0 0.00 0.00 0.00 33 1013.5
20260905224537 95 200 4.0 13.0 0.00 0.00 0.00 33 1013.4
20260905224311 95 200 4.0 13.0 0.00 0.00 0.00 33 1013.4
20260905223811 96 152 5.0 13.0 0.00 0.00 0.00 32 1013.5
20260905223536 96 110 3.0 12.0 0.00 0.00 0.00 32 1013.4
20260905223320 96 110 3.0 12.0 0.00 0.00 0.00 32 1013.4
20260905222818 98 121 6.0 13.0 0.00 0.00 0.00 32 1013.4
20260905222808 97 87 5.0 12.0 0.00 0.00 0.00 31 1013.4
20260905221812 98 188 4.0 16.0 0.00 0.00 0.00 32 1013.4
20260905221720 98 137 6.0 16.0 0.00 0.00 0.00 32 1013.4
20260905220812 97 85 6.0 13.0 0.00 0.00 0.00 33 1013.5
20260905220313 95 149 4.0 11.0 0.00 0.00 0.00 34 1013.5
20260905215812 96 103 5.0 13.0 0.00 0.00 0.00 33 1013.6
20260905215307 97 103 8.0 14.0 0.00 0.00 0.00 32 1013.6
20260905214812 98 96 5.0 14.0 0.00 0.00 0.00 33 1013.7
20260905214324 98 180 7.0 16.0 0.00 0.00 0.00 33 1013.8
20260905214033 98 124 7.0 16.0 0.00 0.00 0.00 33 1013.8
20260905213811 98 124 7.0 16.0 0.00 0.00 0.00 33 1013.8
20260905213312 99 96 6.0 13.0 0.00 0.00 0.00 32 1013.9
20260905212810 99 109 6.0 13.0 0.00 0.00 0.00 32 1013.8
20260905212458 99 125 4.0 16.0 0.00 0.00 0.00 32 1013.9
20260905212002 99 144 5.0 16.0 0.00 0.00 0.00 32 1014.0
20260905211213 98 120 5.0 20.0 0.00 0.00 0.00 33 1014.3
20260905210820 99 92 6.0 17.0 0.00 0.00 0.00 32 1014.2
20260905205812 98 102 7.0 20.0 0.00 0.00 0.00 32 1014.3
20260905205307 99 107 7.0 15.0 0.00 0.00 0.00 33 1014.4
20260905205034 99 197 6.0 15.0 0.00 0.00 0.00 33 1014.5
20260905204821 99 197 6.0 15.0 0.00 0.00 0.00 33 1014.5
20260905204312 99 226 6.0 13.0 0.00 0.00 0.00 34 1014.6
20260905203808 98 111 6.0 12.0 0.00 0.00 0.00 31 1014.7
20260905203324 98 182 4.0 11.0 0.00 0.00 0.00 33 1014.8
20260905202813 98 121 5.0 15.0 0.00 0.00 0.00 33 1014.8
20260905202309 98 142 6.0 15.0 0.00 0.00 0.00 32 1014.8
20260905201814 98 135 5.0 12.0 0.00 0.00 0.00 33 1014.9
20260905201342 98 114 4.0 12.0 0.00 0.00 0.00 35 1015.1
20260905201318 98 133 5.0 12.0 0.00 0.00 0.00 33 1014.9
20260905200626 98 124 6.0 12.0 0.00 0.00 0.00 33 1015.2
20260905200038 99 131 6.0 12.0 0.00 0.00 0.00 33 1015.2
20260905195657 99 158 5.0 14.0 0.00 0.00 0.00 34 1015.3
20260905195455 99 148 5.0 12.0 0.00 0.00 0.00 34 1015.3
20260905194727 98 155 5.0 15.0 0.00 0.00 0.00 35 1015.3
20260905194204 98 93 6.0 15.0 0.00 0.00 0.00 33 1015.3
20260905193307 98 148 6.0 13.0 0.00 0.00 0.00 34 1015.3
20260905192807 98 140 7.0 13.0 0.00 0.00 0.00 34 1015.5
20260905192311 98 237 5.0 15.0 0.00 0.00 0.00 34 1015.5
20260905191810 97 169 7.0 15.0 0.00 0.00 0.00 34 1015.6
20260905191536 97 82 6.0 15.0 0.00 0.00 0.00 34 1015.6
20260905190811 97 176 6.0 17.0 0.00 0.00 0.00 34 1015.7
20260905190310 97 221 6.0 17.0 0.00 0.00 0.00 35 1015.7
20260905185811 97 133 6.0 14.0 0.00 0.00 0.00 36 1015.8
20260905185311 97 124 6.0 14.0 0.00 0.00 0.00 36 1015.8
20260905185035 97 223 7.0 14.0 0.00 0.00 0.00 37 1015.9
20260905184905 97 193 5.0 14.0 0.00 0.00 0.00 37 1015.9
20260905183807 96 99 5.0 14.0 0.00 0.00 0.00 39 1016.1
20260905183536 96 102 4.0 14.0 0.00 0.00 0.00 39 1016.2
20260905182809 96 190 6.0 14.0 0.00 0.00 0.00 39 1016.2
20260905182312 95 109 4.0 12.0 0.00 0.00 0.00 41 1016.2
20260905181811 95 162 7.0 14.0 0.00 0.00 0.00 40 1016.3